Location: Alsip
(41.6689°N, 87.7387°W)
Time: 14:00:04
(UTC+00:00)

Cosmos 1833 Rocket - Pass Details

Date: 14 July 2020
Orbit: 832 x 840 km, 71.0° (Epoch: 04 August)

Event Time Altitude Azimuth Distance (km) Brightness Sun altitude
Exits shadow 07:31:46 48° 168° (SSE) 1,074 2.9 -23.0°
Maximum altitude 07:33:10 66° 110° (ESE) 910 2.8 -22.9°
Drops below altitude 10° 07:38:43 10° 30° (NNE) 2,451 6.2 -22.5°
Sets 07:41:11 0° 27° (NNE) 3,390 7.4 -22.3°
